EW1243 Weather Reports


time (UTC)temp
C
wind
direction
speed
KPH
gust
KPH
rain 1hr
cm
rain 24hr
cm
rain mn
cm
humidity
%
barometer
mb
20260505101517 8 355 0.0 0.0 0.00 0.03 0.03 85 1021.8
20260505100014 9 355 0.0 0.0 0.00 0.03 0.03 84 1021.8
20260505094507 9 355 0.0 0.0 0.00 0.03 0.03 83 1021.6
20260505093004 10 355 0.0 0.0 0.00 0.03 0.03 83 1021.4
20260505091621 10 351 0.0 0.0 0.00 0.03 0.03 82 1021.4
20260505090121 10 351 0.0 0.0 0.00 0.03 0.03 81 1021.2
20260505084529 11 351 0.0 0.0 0.00 0.03 0.03 79 1021.0
20260505083025 11 351 0.0 3.2 0.00 0.03 0.03 77 1020.8
20260505081512 11 351 0.0 6.4 0.00 0.03 0.03 76 1020.7
20260505080016 12 346 0.0 3.2 0.00 0.03 0.03 75 1020.4
20260505074506 12 344 0.0 8.0 0.00 0.03 0.03 73 1020.3
20260505073010 12 36 0.0 9.7 0.00 0.03 0.03 72 1020.0
20260505071503 13 13 0.0 9.7 0.00 0.03 0.03 70 1019.7
20260505070001 13 9 4.8 14.5 0.00 0.03 0.03 68 1019.5
20260505064610 14 338 3.2 16.1 0.00 0.03 0.03 67 1019.3
20260505063102 15 355 1.6 12.9 0.00 0.03 0.03 66 1019.2
20260505061609 15 35 4.8 17.7 0.00 0.03 0.03 65 1019.0
20260505060104 15 5 4.8 19.3 0.00 0.13 0.03 65 1018.9
20260505054606 15 266 4.8 17.7 0.00 0.13 0.03 65 1018.7
20260505053059 15 22 4.8 24.1 0.00 0.13 0.03 63 1018.5
20260505051557 15 9 6.4 20.9 0.00 0.13 0.03 63 1018.5
20260505041600 16 283 12.9 27.4 0.00 0.13 0.03 62 1018.1
20260505040053 16 355 4.8 19.3 0.00 0.15 0.03 62 1018.0
20260505034547 15 301 6.4 19.3 0.00 0.15 0.03 63 1018.1
20260505033048 15 296 8.0 25.7 0.00 0.15 0.03 64 1018.2
20260505031546 15 279 9.7 24.1 0.00 0.15 0.03 64 1018.4
20260505030059 15 292 4.8 20.9 0.00 0.15 0.03 63 1018.6
20260505024547 15 315 6.4 22.5 0.00 0.15 0.03 62 1018.5
20260505023041 15 315 11.3 19.3 0.00 0.15 0.03 62 1018.8
20260505021539 15 274 9.7 24.1 0.00 0.15 0.03 64 1018.9
20260505020041 15 310 0.0 22.5 0.00 0.18 0.03 65 1019.2
20260505014559 15 331 8.0 19.3 0.00 0.18 0.03 65 1019.4
20260505013044 14 355 4.8 14.5 0.00 0.18 0.03 64 1019.7
20260505011539 14 326 4.8 20.9 0.00 0.18 0.03 67 1019.7
20260505010029 13 331 3.2 20.9 0.00 0.23 0.03 69 1019.8
20260505004539 13 280 8.0 19.3 0.00 0.23 0.03 69 1019.7
20260505003048 13 321 0.0 17.7 0.00 0.23 0.03 69 1019.8
20260505001522 13 329 3.2 12.9 0.00 0.23 0.03 72 1019.5
20260505000017 13 265 0.0 20.9 0.00 0.23 0.03 74 1019.4
20260504234515 13 298 6.4 22.5 0.00 0.23 0.03 74 1019.2
20260504233016 12 17 4.8 16.1 0.00 0.23 0.03 73 1019.2
20260504231510 12 283 3.2 16.1 0.00 0.23 0.03 75 1019.2
20260504230107 12 329 4.8 14.5 0.00 0.36 0.03 77 1018.9
20260504224508 11 11 4.8 19.3 0.00 0.36 0.03 79 1018.8
20260504223115 11 277 4.8 17.7 0.00 0.36 0.03 83 1018.8
20260504221553 10 325 3.2 12.9 0.00 0.36 0.03 87 1019.0
20260504220049 9 11 0.0 8.0 0.00 0.36 0.03 91 1018.9
20260504214546 8 346 0.0 6.4 0.00 0.36 0.03 94 1018.6
20260504213046 7 346 0.0 0.0 0.00 0.36 0.03 95 1018.5
20260504211615 -17 0.0 0.0 0.00 0.36 0.03 1018.4
20260504210044 -17 0.0 0.0 0.00 0.36 0.03 1018.1
20260504204534 -17 0.0 0.0 0.00 0.36 0.03 1017.9
20260504203029 -17 0.0 0.0 0.00 0.36 0.03 1017.7
20260504201525 -17 0.0 0.0 0.00 0.36 0.03 1017.5
20260504200022 -17 0.0 0.0 0.00 0.36 0.03 1017.4
20260504194515 -17 0.0 0.0 0.00 0.36 0.03 1017.2
20260504193011 -17 0.0 0.0 0.00 0.36 0.03 1017.0
20260504191507 8 346 1.6 9.7 0.00 0.36 0.03 88 1016.8
20260504190005 8 312 0.0 3.2 0.00 0.41 0.03 88 1016.6
20260504184503 9 331 1.6 12.9 0.00 0.41 0.03 88 1016.2
20260504183008 9 334 1.6 14.5 0.00 0.41 0.03 88 1016.1
20260504181502 9 330 3.2 16.1 0.00 0.41 0.03 88 1016.1
20260504180101 9 302 4.8 17.7 0.00 0.46 0.03 89 1016.0
20260504174556 9 290 1.6 11.3 0.00 0.46 0.03 90 1016.1
20260504173056 8 301 0.0 12.9 0.00 0.46 0.03 91 1016.1
20260504171552 8 334 1.6 6.4 0.00 0.46 0.03 92 1015.9
20260504170121 8 334 0.0 0.0 0.00 0.48 0.03 92 1016.0